Time,TemperatureF,DewpointF,PressureIn,WindDirection,WindDirectionDegrees,WindSpeedMPH,WindSpeedGustMPH,Humidity,HourlyPrecipIn,Conditions,Clouds,dailyrainin,SoftwareType,DateUTC
2013-02-15 00:06:00,38.0,35.0,29.79,NNE,19,3.0,-999.0,87,-99.99,,,0.10,weatherlink.com 1.10,2013-02-15 05:06:00,
2013-02-15 00:21:00,38.0,33.0,29.80,SE,139,4.0,-999.0,82,-99.99,,,0.00,weatherlink.com 1.10,2013-02-15 05:21:00,
2013-02-15 00:36:00,37.9,32.0,29.80,WSW,256,1.0,-999.0,79,-99.99,,,0.00,weatherlink.com 1.10,2013-02-15 05:36:00,
2013-02-15 00:51:00,37.5,32.0,29.80,NNW,336,4.0,-999.0,79,-99.99,,,0.00,weatherlink.com 1.10,2013-02-15 05:51:00,
2013-02-15 01:06:00,37.6,31.0,29.80,NNW,347,1.0,-999.0,78,-99.99,,,0.00,weatherlink.com 1.10,2013-02-15 06:06:00,
2013-02-15 01:21:00,37.8,31.0,29.80,West,281,2.0,-999.0,77,-99.99,,,0.00,weatherlink.com 1.10,2013-02-15 06:21:00,
2013-02-15 01:36:00,37.9,31.0,29.80,WNW,284,6.0,-999.0,77,-99.99,,,0.00,weatherlink.com 1.10,2013-02-15 06:36:00,
2013-02-15 01:51:00,37.9,31.0,29.80,WSW,243,1.0,-999.0,76,-99.99,,,0.00,weatherlink.com 1.10,2013-02-15 06:51:00,
2013-02-15 02:06:00,37.8,31.0,29.81,WNW,288,6.0,-999.0,76,-99.99,,,0.00,weatherlink.com 1.10,2013-02-15 07:06:00,
2013-02-15 02:21:00,37.5,31.0,29.81,West,271,8.0,-999.0,77,-99.99,,,0.00,weatherlink.com 1.10,2013-02-15 07:21:00,
2013-02-15 02:36:00,37.2,31.0,29.80,South,190,5.0,-999.0,77,-99.99,,,0.00,weatherlink.com 1.10,2013-02-15 07:36:00,
2013-02-15 02:51:00,36.8,31.0,29.81,North,5,3.0,-999.0,78,-99.99,,,0.00,weatherlink.com 1.10,2013-02-15 07:51:00,
2013-02-15 03:06:00,36.5,30.0,29.81,West,271,7.0,-999.0,78,-99.99,,,0.00,weatherlink.com 1.10,2013-02-15 08:06:00,
2013-02-15 03:21:00,36.2,30.0,29.80,WSW,250,2.0,-999.0,78,-99.99,,,0.00,weatherlink.com 1.10,2013-02-15 08:21:00,
2013-02-15 03:36:00,36.1,30.0,29.81,WNW,284,2.0,-999.0,77,-99.99,,,0.00,weatherlink.com 1.10,2013-02-15 08:36:00,
2013-02-15 03:51:00,36.0,29.0,29.81,SSW,200,6.0,-999.0,77,-99.99,,,0.00,weatherlink.com 1.10,2013-02-15 08:51:00,
2013-02-15 04:06:00,35.8,29.0,29.82,WSW,242,5.0,-999.0,77,-99.99,,,0.00,weatherlink.com 1.10,2013-02-15 09:06:00,
2013-02-15 04:21:00,35.8,29.0,29.82,WSW,251,3.0,-999.0,77,-99.99,,,0.00,weatherlink.com 1.10,2013-02-15 09:21:00,
2013-02-15 04:36:00,35.8,29.0,29.82,WNW,303,1.0,-999.0,76,-99.99,,,0.00,weatherlink.com 1.10,2013-02-15 09:36:00,
2013-02-15 04:51:00,35.9,29.0,29.83,WSW,245,2.0,-999.0,76,-99.99,,,0.00,weatherlink.com 1.10,2013-02-15 09:51:00,
2013-02-15 05:06:00,35.8,29.0,29.84,West,277,4.0,-999.0,76,-99.99,,,0.00,weatherlink.com 1.10,2013-02-15 10:06:00,
2013-02-15 05:21:00,35.5,29.0,29.84,West,269,6.0,-999.0,78,-99.99,,,0.00,weatherlink.com 1.10,2013-02-15 10:21:00,
2013-02-15 05:36:00,35.4,30.0,29.84,ESE,107,5.0,-999.0,79,-99.99,,,0.00,weatherlink.com 1.10,2013-02-15 10:36:00,
2013-02-15 05:51:00,35.3,30.0,29.85,West,271,2.0,-999.0,80,-99.99,,,0.00,weatherlink.com 1.10,2013-02-15 10:51:00,
2013-02-15 06:06:00,35.1,30.0,29.86,NNW,334,8.0,-999.0,81,-99.99,,,0.00,weatherlink.com 1.10,2013-02-15 11:06:00,
2013-02-15 06:21:00,34.8,30.0,29.87,SW,234,3.0,-999.0,82,-99.99,,,0.00,weatherlink.com 1.10,2013-02-15 11:21:00,
2013-02-15 06:36:00,34.7,30.0,29.87,South,169,5.0,-999.0,83,-99.99,,,0.00,weatherlink.com 1.10,2013-02-15 11:36:00,
2013-02-15 06:51:00,34.5,30.0,29.88,WNW,294,7.0,-999.0,83,-99.99,,,0.00,weatherlink.com 1.10,2013-02-15 11:51:00,
2013-02-15 07:06:00,34.3,30.0,29.88,South,179,2.0,-999.0,83,-99.99,,,0.00,weatherlink.com 1.10,2013-02-15 12:06:00,
2013-02-15 07:21:00,34.3,30.0,29.89,NW,324,5.0,-999.0,84,-99.99,,,0.00,weatherlink.com 1.10,2013-02-15 12:21:00,
2013-02-15 07:36:00,34.3,30.0,29.89,WNW,288,1.0,-999.0,85,-99.99,,,0.00,weatherlink.com 1.10,2013-02-15 12:36:00,
2013-02-15 07:51:00,34.2,30.0,29.89,NNW,328,5.0,-999.0,85,-99.99,,,0.00,weatherlink.com 1.10,2013-02-15 12:51:00,
2013-02-15 08:06:00,34.1,30.0,29.91,WNW,294,8.0,-999.0,84,-99.99,,,0.00,weatherlink.com 1.10,2013-02-15 13:06:00,
2013-02-15 08:21:00,33.9,29.0,29.92,WNW,283,6.0,-999.0,83,-99.99,,,0.00,weatherlink.com 1.10,2013-02-15 13:21:00,
2013-02-15 08:36:00,33.4,28.0,29.93,WNW,298,6.0,-999.0,81,-99.99,,,0.00,weatherlink.com 1.10,2013-02-15 13:36:00,
2013-02-15 08:51:00,33.5,28.0,29.94,West,273,3.0,-999.0,81,-99.99,,,0.00,weatherlink.com 1.10,2013-02-15 13:51:00,
2013-02-15 09:06:00,32.8,27.0,29.95,SSW,205,0.0,-999.0,80,-99.99,,,0.00,weatherlink.com 1.10,2013-02-15 14:06:00,
2013-02-15 09:21:00,32.5,27.0,29.95,WSW,248,5.0,-999.0,81,-99.99,,,0.00,weatherlink.com 1.10,2013-02-15 14:21:00,
2013-02-15 09:36:00,32.6,27.0,29.96,South,187,2.0,-999.0,80,-99.99,,,0.00,weatherlink.com 1.10,2013-02-15 14:36:00,
2013-02-15 09:51:00,32.6,27.0,29.96,WNW,294,4.0,-999.0,81,-99.99,,,0.00,weatherlink.com 1.10,2013-02-15 14:51:00,
2013-02-15 10:06:00,32.5,27.0,29.97,WNW,292,7.0,-999.0,81,-99.99,,,0.00,weatherlink.com 1.10,2013-02-15 15:06:00,
2013-02-15 10:21:00,32.3,26.0,29.98,WSW,242,5.0,-999.0,78,-99.99,,,0.00,weatherlink.com 1.10,2013-02-15 15:21:00,
2013-02-15 10:36:00,32.6,26.0,29.98,NW,319,3.0,-999.0,77,-99.99,,,0.00,weatherlink.com 1.10,2013-02-15 15:36:00,
2013-02-15 10:51:00,32.7,26.0,29.98,NW,318,4.0,-999.0,76,-99.99,,,0.00,weatherlink.com 1.10,2013-02-15 15:51:00,
2013-02-15 11:06:00,32.6,26.0,29.98,WNW,292,3.0,-999.0,77,-99.99,,,0.00,weatherlink.com 1.10,2013-02-15 16:06:00,
2013-02-15 11:21:00,33.4,26.0,29.98,West,267,3.0,-999.0,75,-99.99,,,0.00,weatherlink.com 1.10,2013-02-15 16:21:00,
2013-02-15 11:36:00,33.7,26.0,29.98,WNW,294,3.0,-999.0,74,-99.99,,,0.00,weatherlink.com 1.10,2013-02-15 16:36:00,
2013-02-15 11:51:00,34.3,26.0,29.98,West,267,2.0,-999.0,73,-99.99,,,0.00,weatherlink.com 1.10,2013-02-15 16:51:00,
2013-02-15 12:06:00,34.2,26.0,29.98,WNW,285,7.0,-999.0,72,-99.99,,,0.00,weatherlink.com 1.10,2013-02-15 17:06:00,
2013-02-15 12:21:00,34.1,26.0,29.98,WNW,291,4.0,-999.0,72,-99.99,,,0.00,weatherlink.com 1.10,2013-02-15 17:21:00,
2013-02-15 12:36:00,33.9,26.0,29.98,WNW,292,8.0,-999.0,72,-99.99,,,0.00,weatherlink.com 1.10,2013-02-15 17:36:00,
2013-02-15 12:51:00,33.6,25.0,29.98,NW,305,4.0,-999.0,71,-99.99,,,0.00,weatherlink.com 1.10,2013-02-15 17:51:00,
2013-02-15 13:06:00,33.3,25.0,29.98,WSW,257,6.0,-999.0,71,-99.99,,,0.00,weatherlink.com 1.10,2013-02-15 18:06:00,
2013-02-15 13:21:00,33.3,24.0,29.98,South,180,2.0,-999.0,69,-99.99,,,0.00,weatherlink.com 1.10,2013-02-15 18:21:00,
2013-02-15 13:36:00,33.0,24.0,29.98,West,262,7.0,-999.0,70,-99.99,,,0.00,weatherlink.com 1.10,2013-02-15 18:36:00,
2013-02-15 13:51:00,33.3,24.0,29.98,WNW,292,5.0,-999.0,68,-99.99,,,0.00,weatherlink.com 1.10,2013-02-15 18:51:00,
2013-02-15 14:06:00,33.3,23.0,29.98,WSW,253,3.0,-999.0,66,-99.99,,,0.00,weatherlink.com 1.10,2013-02-15 19:06:00,
2013-02-15 14:21:00,33.1,24.0,29.98,WNW,291,6.0,-999.0,68,-99.99,,,0.00,weatherlink.com 1.10,2013-02-15 19:21:00,
2013-02-15 14:36:00,32.6,24.0,29.98,South,184,2.0,-999.0,71,-99.99,,,0.00,weatherlink.com 1.10,2013-02-15 19:36:00,
2013-02-15 14:51:00,32.8,25.0,29.98,North,355,2.0,-999.0,72,-99.99,,,0.00,weatherlink.com 1.10,2013-02-15 19:51:00,
2013-02-15 15:06:00,32.6,23.0,29.98,NW,313,10.0,-999.0,67,-99.99,,,0.00,weatherlink.com 1.10,2013-02-15 20:06:00,
2013-02-15 15:21:00,32.3,22.0,29.99,NW,309,7.0,-999.0,67,-99.99,,,0.00,weatherlink.com 1.10,2013-02-15 20:21:00,
2013-02-15 15:36:00,32.0,22.0,30.00,SSE,155,1.0,-999.0,67,-99.99,,,0.00,weatherlink.com 1.10,2013-02-15 20:36:00,
2013-02-15 15:51:00,31.9,23.0,30.00,West,274,3.0,-999.0,70,-99.99,,,0.00,weatherlink.com 1.10,2013-02-15 20:51:00,
2013-02-15 16:06:00,31.7,23.0,30.00,WNW,290,7.0,-999.0,71,-99.99,,,0.00,weatherlink.com 1.10,2013-02-15 21:06:00,
2013-02-15 16:21:00,31.4,24.0,30.00,WNW,294,6.0,-999.0,74,-99.99,,,0.00,weatherlink.com 1.10,2013-02-15 21:21:00,
2013-02-15 16:36:00,31.4,24.0,30.00,WSW,243,2.0,-999.0,74,-99.99,,,0.00,weatherlink.com 1.10,2013-02-15 21:36:00,
2013-02-15 16:51:00,31.6,25.0,30.01,SW,235,0.0,-999.0,75,-99.99,,,0.00,weatherlink.com 1.10,2013-02-15 21:51:00,
2013-02-15 17:06:00,31.1,24.0,30.01,NW,312,5.0,-999.0,74,-99.99,,,0.00,weatherlink.com 1.10,2013-02-15 22:06:00,
2013-02-15 17:21:00,30.7,24.0,30.02,West,265,0.0,-999.0,75,-99.99,,,0.00,weatherlink.com 1.10,2013-02-15 22:21:00,
2013-02-15 17:36:00,30.4,24.0,30.02,SW,236,0.0,-999.0,76,-99.99,,,0.00,weatherlink.com 1.10,2013-02-15 22:36:00,
2013-02-15 17:51:00,30.4,24.0,30.02,NW,307,2.0,-999.0,76,-99.99,,,0.00,weatherlink.com 1.10,2013-02-15 22:51:00,
2013-02-15 18:06:00,30.1,22.0,30.03,WNW,293,1.0,-999.0,71,-99.99,,,0.00,weatherlink.com 1.10,2013-02-15 23:06:00,
2013-02-15 18:21:00,29.6,21.0,30.03,NW,324,4.0,-999.0,69,-99.99,,,0.00,weatherlink.com 1.10,2013-02-15 23:21:00,
2013-02-15 18:36:00,29.3,20.0,30.05,South,175,1.0,-999.0,68,-99.99,,,0.00,weatherlink.com 1.10,2013-02-15 23:36:00,
2013-02-15 18:51:00,29.2,19.0,30.05,WNW,284,2.0,-999.0,67,-99.99,,,0.00,weatherlink.com 1.10,2013-02-15 23:51:00,
2013-02-15 19:06:00,28.8,20.0,30.06,WNW,296,3.0,-999.0,70,-99.99,,,0.00,weatherlink.com 1.10,2013-02-16 00:06:00,
2013-02-15 19:21:00,28.2,20.0,30.06,NW,316,3.0,-999.0,71,-99.99,,,0.00,weatherlink.com 1.10,2013-02-16 00:21:00,
2013-02-15 19:36:00,27.5,19.0,30.07,NW,315,0.0,-999.0,71,-99.99,,,0.00,weatherlink.com 1.10,2013-02-16 00:36:00,
2013-02-15 19:51:00,27.1,19.0,30.07,North,5,2.0,-999.0,71,-99.99,,,0.00,weatherlink.com 1.10,2013-02-16 00:51:00,
2013-02-15 20:06:00,27.0,18.0,30.07,NW,316,4.0,-999.0,68,-99.99,,,0.00,weatherlink.com 1.10,2013-02-16 01:06:00,
2013-02-15 20:21:00,26.9,18.0,30.07,NNW,335,4.0,-999.0,68,-99.99,,,0.00,weatherlink.com 1.10,2013-02-16 01:21:00,
2013-02-15 20:36:00,26.8,18.0,30.07,NW,315,1.0,-999.0,68,-99.99,,,0.00,weatherlink.com 1.10,2013-02-16 01:36:00,
2013-02-15 20:51:00,26.6,17.0,30.07,NW,308,5.0,-999.0,66,-99.99,,,0.00,weatherlink.com 1.10,2013-02-16 01:51:00,
2013-02-15 21:06:00,26.1,16.0,30.07,WNW,294,2.0,-999.0,66,-99.99,,,0.00,weatherlink.com 1.10,2013-02-16 02:06:00,
2013-02-15 21:21:00,25.4,16.0,30.08,West,273,0.0,-999.0,67,-99.99,,,0.00,weatherlink.com 1.10,2013-02-16 02:21:00,
2013-02-15 21:36:00,24.7,16.0,30.08,WNW,297,3.0,-999.0,69,-99.99,,,0.00,weatherlink.com 1.10,2013-02-16 02:36:00,
2013-02-15 21:51:00,24.4,16.0,30.08,WNW,297,1.0,-999.0,71,-99.99,,,0.00,weatherlink.com 1.10,2013-02-16 02:51:00,
2013-02-15 22:06:00,24.0,16.0,30.08,NW,315,0.0,-999.0,72,-99.99,,,0.00,weatherlink.com 1.10,2013-02-16 03:06:00,
2013-02-15 22:21:00,23.7,17.0,30.09,West,279,1.0,-999.0,74,-99.99,,,0.00,weatherlink.com 1.10,2013-02-16 03:21:00,
2013-02-15 22:36:00,23.4,17.0,30.09,WNW,302,1.0,-999.0,75,-99.99,,,0.00,weatherlink.com 1.10,2013-02-16 03:36:00,
2013-02-15 22:51:00,23.1,17.0,30.09,NW,313,0.0,-999.0,76,-99.99,,,0.00,weatherlink.com 1.10,2013-02-16 03:51:00,
2013-02-15 23:06:00,23.0,17.0,30.09,NW,309,0.0,-999.0,77,-99.99,,,0.00,weatherlink.com 1.10,2013-02-16 04:06:00,
2013-02-15 23:21:00,23.1,17.0,30.08,SW,219,0.0,-999.0,77,-99.99,,,0.00,weatherlink.com 1.10,2013-02-16 04:21:00,
2013-02-15 23:36:00,23.2,17.0,30.09,SW,220,0.0,-999.0,77,-99.99,,,0.00,weatherlink.com 1.10,2013-02-16 04:36:00,
2013-02-15 23:51:00,23.3,17.0,30.08,WNW,288,0.0,-999.0,77,-99.99,,,0.00,weatherlink.com 1.10,2013-02-16 04:51:00,